Location: Marne
(34.0056°N, 117.9064°W)
Time: 04:43:18
(UTC+00:00)

ADEOS Rocket - Pass Details

Date: 18 January 2020
Orbit: 859 x 1306 km, 98.7° (Epoch: 19 February)

Event Time Altitude Azimuth Distance (km) Brightness Sun altitude
Exits shadow 03:08:30 - 10° (N) 3,513 5.7 -24.8°
Reaches altitude 10° 03:10:14 10° 8° (N) 2,869 5.3 -25.2°
Maximum altitude 03:16:45 74° 285° (WNW) 1,178 3.4 -26.5°
Drops below altitude 10° 03:23:58 10° 202° (SSW) 3,161 6.0 -28.0°
Sets 03:26:43 0° 201° (SSW) 4,171 6.6 -28.6°
